Wind_Speed
37 27 28 31 27 17 20 22 24 22 30 26 19 17 25 17 19 29 30 35 35 29 32 31 36 37 43 45 45 46 47 48 52 54 53 56 60 65 65 67 70 74 73 76
37 33 32 27 29 20 22 27 22 24 27 23 15 22 24 16 27 29 32 34 35 35 37 32 30 39 45 48 51 50 49 51 52 52 55 57 60 64 67 70 72 73 73 74
46 44 32 27 30 25 27 29 29 21 20 21 20 25 24 24 28 30 34 33 29 33 40 38 35 39 43 50 52 51 51 53 54 52 55 61 63 65 67 69 72 72 72 74
48 42 35 30 30 30 31 31 23 22 25 25 20 27 27 32 33 31 31 31 23 32 39 31 33 38 44 50 52 52 54 55 54 56 55 60 63 64 66 68 71 74 73 76
56 51 44 34 38 39 38 33 31 30 30 27 28 26 32 32 33 32 31 32 34 37 42 35 31 35 40 48 56 53 57 58 55 53 55 59 63 66 70 71 73 77 75 78
59 43 35 40 41 38 40 35 38 38 39 29 34 25 31 30 31 29 27 34 23 29 28 34 31 33 42 57 58 56 58 60 53 52 54 58 63 68 71 74 77 79 79 79
60 53 45 44 40 37 39 38 36 32 32 38 34 28 28 27 35 34 30 31 32 27 24 28 32 42 50 52 57 57 57 57 51 51 55 58 61 68 72 74 77 79 80 77
60 51 51 51 51 50 45 41 38 34 30 32 34 37 39 37 35 33 39 42 38 38 32 24 34 41 45 50 56 56 55 50 54 55 59 58 61 68 72 75 74 77 79 80
66 63 60 48 52 52 45 42 44 37 34 35 37 37 41 36 38 39 40 36 37 41 30 35 43 42 49 58 60 55 53 52 57 57 57 60 64 69 72 73 78 76 78 79
74 71 65 62 52 48 46 44 42 42 39 31 31 32 36 35 35 37 38 39 41 42 41 45 47 48 55 65 53 53 50 56 56 58 57 62 65 68 73 72 77 74 79 77
75 75 73 67 59 54 51 48 45 42 37 33 34 35 36 37 39 39 42 43 45 45 44 45 45 50 53 59 53 52 52 58 55 58 59 63 67 67 70 74 73 79 76 77
66 67 71 67 64 61 51 48 46 43 43 37 34 39 39 42 45 42 40 41 43 46 49 50 52 51 57 53 48 51 58 53 54 59 63 64 68 67 68 71 74 75 74 75
56 59 59 58 63 55 49 53 43 41 42 38 37 42 42 43 44 47 49 46 47 52 54 55 59 60 56 50 50 53 48 51 54 59 63 63 67 69 65 74 74 76 74 73
50 54 58 55 58 55 51 49 47 47 43 38 40 43 40 44 49 52 50 50 54 58 56 52 54 57 56 51 45 43 47 52 54 60 62 63 64 66 65 74 76 76 71 72
46 50 54 50 52 52 51 47 46 43 39 34 41 45 46 46 45 46 48 53 52 51 49 47 47 50 50 45 41 42 44 49 55 60 59 60 62 66 69 73 75 74 71 70
45 45 51 55 50 50 51 52 50 48 45 45 41 43 46 50 56 56 55 48 45 48 50 46 43 43 43 42 38 40 50 54 57 57 57 61 63 67 69 74 74 71 69 70
43 45 47 50 51 51 49 42 44 48 47 40 37 39 41 45 47 49 49 49 49 52 54 53 52 51 44 42 39 46 50 53 57 56 57 59 60 62 69 73 72 70 68 67
42 45 47 47 43 40 43 32 35 38 35 38 39 41 43 44 44 47 51 52 55 57 56 57 54 51 47 45 46 46 50 51 55 50 54 57 60 62 71 70 68 69 66 66
40 43 46 42 41 36 33 34 34 30 27 29 33 33 34 38 43 51 54 55 58 65 66 62 57 47 43 47 43 43 48 50 49 49 54 57 56 65 70 68 66 69 64 66
41 41 37 32 31 34 34 29 27 25 24 26 29 31 35 44 51 56 59 51 37 33 42 50 49 40 38 33 39 47 48 46 51 52 55 54 65 65 67 66 67 64 63 64
36 35 34 31 30 30 28 25 22 23 29 25 29 32 37 39 34 19 18 17 21 25 24 14 12 19 27 35 44 47 44 48 52 53 54 63 63 65 63 62 64 64 61 63
38 34 29 24 22 24 24 22 24 24 25 27 27 30 36 22 12 14 17 20 19 24 22 21 22 28 33 41 44 44 47 50 50 52 60 63 63 64 60 60 61 60 60 61
35 31 29 28 26 26 24 23 23 25 26 28 22 24 18 10 13 18 19 22 23 22 24 26 30 33 40 40 45 48 48 49 52 59 61 63 62 58 57 59 62 60 59 59
37 34 31 28 27 24 22 21 21 20 22 24 14 14 13 15 17 19 23 26 25 26 30 34 35 39 42 44 45 46 48 52 56 59 62 58 56 56 57 59 59 59 57 55
35 33 29 27 27 26 23 19 15 21 10 15 22 12 12 16 20 25 28 31 31 34 36 35 37 38 41 45 49 50 53 57 59 55 52 55 56 57 58 57 60 57 55 55
35 34 32 30 27 26 24 24 18 16 15 12 15 19 22 25 26 28 26 27 29 31 34 35 37 43 48 49 50 52 52 51 48 51 55 55 55 56 54 56 58 55 55 55
Wind_Direction
226 217 223 225 225 219 226 235 229 241 241 245 259 260 259 291 299 286 297 305 311 302 298 304 311 318 324 336 351 351 352 353 352 349 351 349 348 348 348 347 348 348 347 347
225 225 226 233 227 233 229 227 226 239 247 251 266 264 283 271 269 281 298 306 301 302 305 300 320 324 317 327 349 345 348 348 351 347 349 347 347 347 347 346 345 345 344 344
228 235 237 241 241 229 239 230 228 239 244 260 274 277 282 270 266 291 300 301 296 296 304 303 315 316 315 320 342 342 341 345 346 345 344 348 346 346 343 344 343 342 342 345
229 233 234 237 241 232 231 232 237 240 245 258 262 270 277 275 283 284 300 302 297 289 293 296 305 307 307 311 337 341 339 340 342 344 340 342 342 343 342 342 341 339 343 346
232 233 235 236 245 233 244 245 247 237 243 258 266 275 278 282 278 275 287 287 291 300 294 288 295 299 307 319 329 335 338 336 340 340 341 339 339 339 340 340 340 340 344 345
235 237 242 246 257 246 247 247 248 250 258 255 267 268 273 277 277 277 279 283 286 304 303 286 290 295 302 307 321 333 334 332 337 338 339 338 338 340 341 343 339 340 341 344
236 236 238 244 247 242 243 252 248 248 253 256 274 263 263 286 275 274 273 277 275 307 319 285 273 288 298 310 319 330 330 333 335 336 336 335 335 337 340 341 341 340 338 341
237 235 241 245 244 242 244 246 246 246 255 269 287 258 257 266 277 277 274 280 278 281 287 294 294 289 309 311 319 327 327 329 332 334 336 334 331 334 338 340 340 336 336 339
238 237 239 240 243 244 246 248 244 255 258 272 279 279 263 263 278 272 276 267 269 283 285 286 301 291 306 307 315 322 323 322 327 331 337 332 329 333 334 341 342 337 338 339
233 238 241 239 243 243 245 247 251 251 260 259 275 274 269 273 275 275 279 274 277 285 287 291 297 301 298 297 313 318 320 322 329 331 335 331 333 330 333 335 339 339 337 337
226 232 238 240 242 243 245 244 249 253 251 255 277 265 270 276 281 277 278 277 280 287 291 292 292 292 289 297 308 314 316 319 328 330 331 332 333 331 332 336 339 339 336 336
224 222 230 235 240 242 250 251 252 252 251 266 265 267 271 272 276 278 275 277 281 287 291 294 296 296 299 308 309 308 312 316 324 326 327 329 332 331 332 341 340 336 337 338
222 218 225 232 239 247 249 252 254 257 257 265 260 263 269 270 269 277 281 282 285 289 292 295 297 302 303 304 305 308 310 315 320 323 324 328 332 329 332 344 337 337 336 337
224 220 225 225 232 235 243 249 256 261 259 259 256 259 263 270 273 274 275 281 283 289 289 288 290 295 299 300 305 313 312 313 317 321 324 327 329 329 327 338 336 336 337 337
219 222 223 227 231 237 242 248 252 257 249 253 261 250 259 261 265 269 268 275 280 283 288 291 291 292 295 296 305 311 311 316 316 318 322 327 328 327 333 338 333 336 335 339
218 221 220 227 229 229 237 239 238 247 253 259 258 261 264 268 266 271 272 267 269 280 287 285 292 297 298 295 302 305 310 312 315 319 322 326 328 328 332 334 333 336 336 339
216 216 222 227 226 228 231 241 246 247 254 255 257 261 265 269 272 275 275 277 281 283 284 286 287 287 292 292 298 307 311 316 318 317 322 326 327 330 333 332 333 335 338 339
215 214 217 224 223 226 232 237 240 241 245 251 259 264 267 271 275 275 273 276 276 278 280 281 283 281 281 286 293 308 313 316 320 322 323 327 327 330 332 331 332 333 338 339
204 210 215 219 220 225 229 233 241 251 258 258 260 268 274 275 275 276 277 275 274 276 276 273 272 274 276 281 294 308 315 319 322 323 322 327 326 330 330 331 331 333 336 337
204 206 209 211 209 215 223 233 239 249 252 257 263 275 278 282 286 288 286 287 286 297 295 273 261 266 274 296 301 308 315 317 321 317 323 328 325 329 330 330 330 333 334 336
207 210 208 208 209 217 225 227 230 238 249 263 277 282 283 283 284 284 302 323 327 345 354 351 281 285 297 305 306 311 315 317 317 320 325 322 326 327 329 328 331 332 334 335
208 208 210 207 211 222 224 227 236 248 260 271 279 284 279 264 294 335 324 320 329 337 327 316 303 303 304 308 313 314 315 315 319 321 319 321 324 326 327 328 329 332 333 335
202 205 210 213 214 220 221 231 243 255 267 269 277 268 255 267 317 308 307 312 315 308 311 309 306 307 313 312 313 314 315 319 319 316 318 321 323 325 327 328 329 331 332 334
203 207 213 215 219 221 230 240 258 260 266 274 248 250 261 288 292 295 297 300 308 312 313 311 308 311 312 315 316 319 321 317 315 314 317 320 323 326 327 328 329 332 332 334
208 211 211 214 222 229 232 242 231 250 250 249 239 266 287 291 297 298 295 298 299 303 307 309 310 312 315 318 319 317 313 312 315 318 320 323 324 324 326 327 330 331 332 333
204 209 209 213 220 226 232 218 229 220 229 244 269 265 272 285 293 297 303 305 307 308 310 312 314 317 319 319 316 315 315 318 320 321 323 322 321 323 325 328 330 330 331 333
Height
10878 10882 10885 10888 10894 10896 10895 10897 10899 10900 10900 10900 10901 10900 10901 10899 10896 10895 10893 10889 10886 10887 10887 10884 10880 10875 10870 10862 10851 10842 10834 10827 10817 10809 10801 10792 10782 10771 10758 10747 10734 10721 10707 10694
10872 10875 10879 10884 10888 10891 10891 10893 10894 10896 10896 10897 10897 10898 10897 10895 10893 10890 10887 10882 10879 10877 10876 10874 10872 10866 10861 10855 10844 10837 10827 10821 10814 10806 10796 10786 10775 10764 10753 10740 10727 10715 10702 10690
10864 10866 10875 10878 10883 10886 10886 10887 10889 10892 10893 10892 10893 10892 10893 10891 10888 10886 10882 10877 10876 10872 10869 10864 10861 10857 10852 10847 10838 10833 10824 10816 10807 10800 10790 10780 10769 10758 10747 10734 10721 10710 10698 10682
10858 10864 10870 10873 10877 10879 10881 10880 10884 10886 10888 10888 10890 10887 10889 10886 10884 10883 10878 10875 10871 10867 10864 10859 10854 10852 10850 10844 10835 10830 10821 10812 10802 10793 10784 10774 10765 10754 10743 10732 10718 10702 10687 10671
10850 10857 10862 10866 10866 10873 10872 10877 10879 10880 10882 10885 10883 10886 10882 10882 10879 10877 10876 10873 10868 10864 10859 10854 10850 10850 10845 10838 10831 10826 10816 10807 10798 10789 10781 10772 10760 10749 10737 10724 10710 10694 10679 10664
10843 10850 10858 10860 10861 10867 10867 10873 10874 10876 10878 10879 10878 10884 10877 10877 10874 10872 10870 10867 10864 10858 10852 10849 10847 10846 10841 10834 10827 10820 10811 10802 10793 10785 10776 10765 10753 10741 10730 10717 10702 10688 10675 10661
10833 10843 10849 10850 10855 10860 10859 10863 10867 10872 10873 10872 10874 10879 10876 10873 10868 10866 10865 10862 10859 10853 10850 10848 10845 10841 10835 10828 10822 10814 10807 10798 10787 10778 10769 10759 10746 10733 10722 10711 10698 10683 10670 10657
10826 10835 10839 10843 10846 10847 10853 10858 10863 10864 10867 10867 10869 10872 10870 10868 10864 10861 10858 10855 10853 10849 10846 10843 10839 10835 10828 10822 10816 10808 10802 10794 10784 10772 10761 10750 10738 10728 10717 10706 10691 10678 10664 10650
10815 10822 10827 10835 10836 10839 10846 10853 10853 10862 10860 10862 10861 10862 10859 10859 10857 10856 10852 10848 10846 10843 10839 10836 10832 10827 10820 10815 10809 10804 10797 10788 10777 10766 10755 10744 10733 10724 10713 10700 10687 10673 10659 10644
10804 10809 10817 10824 10830 10836 10839 10842 10850 10852 10854 10855 10855 10855 10851 10851 10850 10848 10846 10843 10840 10837 10835 10831 10826 10821 10816 10808 10803 10799 10791 10779 10770 10760 10750 10740 10729 10719 10707 10694 10683 10667 10654 10639
10793 10801 10809 10817 10824 10824 10829 10836 10842 10846 10849 10849 10851 10850 10845 10842 10842 10841 10838 10835 10832 10829 10827 10824 10819 10814 10807 10800 10797 10792 10783 10773 10763 10755 10746 10736 10726 10713 10701 10690 10676 10663 10648 10633
10782 10789 10799 10808 10810 10817 10825 10827 10835 10839 10840 10844 10844 10843 10841 10837 10834 10831 10829 10827 10824 10822 10819 10816 10812 10806 10800 10793 10789 10784 10775 10767 10757 10751 10741 10731 10719 10706 10696 10683 10670 10657 10643 10628
10775 10786 10792 10799 10804 10810 10814 10817 10825 10831 10836 10838 10838 10836 10832 10831 10827 10823 10819 10819 10817 10812 10810 10807 10803 10796 10791 10787 10783 10775 10768 10761 10753 10746 10736 10724 10712 10701 10690 10676 10664 10652 10638 10624
10770 10776 10783 10792 10793 10798 10804 10809 10818 10824 10828 10828 10829 10827 10826 10824 10818 10815 10812 10810 10806 10802 10799 10797 10795 10790 10785 10780 10775 10769 10762 10755 10748 10740 10730 10719 10707 10695 10684 10672 10658 10645 10633 10619
10762 10771 10776 10781 10787 10795 10797 10807 10812 10816 10818 10821 10817 10821 10818 10814 10810 10808 10804 10802 10799 10793 10789 10788 10786 10783 10778 10773 10769 10763 10757 10749 10741 10732 10722 10711 10700 10689 10678 10665 10651 10638 10625 10612
10753 10760 10768 10772 10780 10788 10792 10799 10805 10809 10811 10811 10810 10810 10808 10807 10803 10799 10795 10792 10790 10786 10781 10780 10779 10776 10771 10765 10761 10756 10749 10740 10733 10723 10714 10703 10693 10682 10672 10660 10645 10632 10618 10606
10746 10750 10757 10763 10773 10780 10788 10793 10797 10801 10802 10802 10803 10801 10800 10796 10793 10790 10786 10782 10781 10776 10772 10768 10768 10767 10764 10758 10753 10747 10740 10733 10724 10713 10705 10696 10686 10677 10665 10651 10639 10626 10613 10600
10738 10743 10749 10754 10765 10775 10780 10785 10787 10790 10794 10796 10794 10792 10790 10788 10785 10780 10775 10773 10770 10763 10761 10758 10756 10757 10754 10749 10744 10737 10732 10723 10714 10705 10697 10689 10679 10670 10657 10644 10632 10619 10608 10595
10729 10736 10744 10753 10763 10771 10775 10778 10779 10783 10787 10787 10785 10786 10785 10781 10776 10769 10765 10762 10758 10751 10747 10746 10746 10748 10744 10740 10735 10729 10722 10713 10705 10698 10690 10680 10671 10662 10651 10637 10624 10612 10602 10590
10726 10733 10743 10753 10760 10764 10765 10772 10775 10777 10779 10780 10780 10779 10776 10771 10766 10760 10753 10749 10744 10736 10730 10725 10730 10737 10735 10731 10726 10720 10712 10704 10696 10689 10681 10672 10663 10652 10641 10630 10617 10606 10595 10584
10724 10732 10741 10747 10754 10758 10762 10766 10769 10772 10770 10773 10772 10770 10765 10762 10758 10752 10746 10740 10736 10730 10727 10725 10728 10727 10727 10724 10716 10711 10702 10695 10688 10679 10671 10664 10655 10645 10633 10622 10611 10600 10589 10578
10722 10730 10737 10744 10748 10751 10756 10760 10763 10765 10764 10765 10763 10759 10757 10753 10750 10745 10742 10739 10735 10731 10730 10728 10726 10724 10721 10714 10706 10700 10694 10687 10678 10670 10663 10654 10645 10636 10625 10615 10604 10593 10583 10572
10718 10726 10731 10736 10740 10744 10750 10755 10757 10757 10758 10757 10755 10752 10750 10748 10745 10743 10739 10736 10733 10730 10728 10725 10721 10717 10711 10705 10698 10691 10684 10676 10669 10661 10652 10644 10635 10626 10616 10607 10597 10587 10576 10566
10710 10718 10724 10730 10735 10740 10744 10748 10750 10749 10749 10750 10749 10747 10744 10743 10741 10738 10735 10732 10729 10726 10722 10718 10714 10708 10703 10696 10688 10681 10674 10667 10660 10651 10642 10633 10624 10615 10607 10598 10589 10580 10569 10559
10707 10712 10719 10725 10729 10734 10736 10739 10741 10741 10742 10743 10743 10741 10740 10739 10736 10733 10730 10726 10723 10719 10716 10711 10706 10700 10693 10686 10679 10672 10664 10657 10648 10638 10630 10622 10614 10606 10598 10589 10580 10571 10562 10552
10700 10706 10712 10717 10724 10728 10730 10731 10733 10735 10734 10734 10736 10736 10735 10733 10729 10726 10724 10721 10717 10712 10708 10704 10698 10691 10684 10677 10670 10663 10654 10646 10637 10629 10620 10613 10605 10597 10589 10581 10571 10562 10554 10543